Location: Newark
(49.8348°N, 24.0280°E)
Time: 13:05:37
(UTC+00:00)

S-56A Canister/Altair - Pass Details

Date: 26 January 2020
Orbit: 633 x 2500 km, 38.9° (Epoch: 24 February)

Event Time Altitude Azimuth Distance (km) Brightness Sun altitude
Rises 20:12:02 0° 248° (WSW) 3,651 11.3 -47.6°
Enters shadow 20:12:42 - 246° (WSW) 3,405 11.1 -47.7°
Reaches altitude 10° 20:15:22 10° 235° (SW) 2,452 - -48.1°
Maximum altitude 20:19:42 24° 183° (S) 1,460 - -48.6°
Drops below altitude 10° 20:23:23 10° 129° (SE) 2,050 - -49.1°
Sets 20:25:54 0° 114° (ESE) 2,917 - -49.4°
